Theta_e
305 305 304 304 304 304 304 305 305 305 305 305 305 305 305 305 305 305 305 305 305 305 306 306 306 306 306 306 306 307 307 307 307 307 307 307 307 306 306 306 306 306 306 307 308 309 309 309 310 311 311 310 310 311 309 309 310 312 316 316 314 317 317 317 316 310 312 314 307 306 311 316 317 313 311 310 310 311 310 310 310 310 309 309 307 306 306 306
305 304 304 305 305 305 305 305 305 305 305 305 305 305 306 306 306 306 306 306 306 306 306 306 306 306 306 306 306 306 307 307 307 307 307 307 306 306 306 306 306 306 306 306 307 308 309 309 309 309 310 309 309 310 310 309 309 313 315 313 316 320 314 310 310 306 307 309 306 306 311 314 315 311 310 310 308 307 309 310 309 310 309 309 309 307 307 306
305 305 305 305 306 306 306 306 305 305 305 305 305 305 305 306 306 306 306 306 306 306 306 306 306 306 306 306 306 307 307 307 307 307 307 307 307 306 306 306 306 306 306 306 306 307 308 308 309 309 309 309 308 309 309 308 308 308 309 313 321 316 308 305 305 306 306 306 305 306 309 311 312 308 308 308 306 305 308 310 308 308 309 309 309 308 307 306
305 306 306 306 306 306 306 306 305 305 305 305 305 305 306 306 306 306 306 306 306 306 306 306 306 306 306 306 307 307 307 307 307 307 307 307 307 306 306 307 306 306 306 306 306 306 307 307 309 309 309 309 307 308 309 307 308 306 307 316 316 306 307 307 304 305 305 304 305 306 308 310 310 308 307 306 307 309 307 306 307 307 307 307 308 308 307 306
306 306 307 307 307 306 306 305 305 305 305 305 305 305 305 306 306 306 306 306 306 306 306 306 306 306 306 307 307 306 307 309 308 307 307 307 308 306 306 306 306 307 306 306 306 306 307 308 309 309 309 309 307 308 307 305 306 307 308 309 306 302 307 306 302 304 304 303 305 306 308 310 308 307 307 306 309 311 306 304 305 305 305 305 306 306 306 306
307 307 307 307 307 307 306 305 305 305 305 305 305 305 306 306 306 306 305 306 306 306 306 306 306 306 306 306 306 306 307 308 308 307 307 307 307 307 306 306 306 306 306 306 306 306 307 308 309 309 307 307 307 308 307 305 305 309 308 302 302 304 305 304 303 303 303 303 304 305 307 306 305 305 305 305 307 307 304 304 305 304 305 305 305 305 305 305
307 307 307 306 307 307 305 305 305 305 305 305 305 305 305 305 305 305 305 306 306 306 306 306 306 306 306 306 306 307 307 307 307 307 307 306 307 306 306 306 306 306 307 307 306 306 307 307 308 308 307 307 307 306 306 306 304 307 309 303 302 303 302 302 303 302 303 303 303 304 305 303 304 304 303 303 303 303 303 303 304 304 304 304 304 304 304 304
306 307 307 306 306 307 306 305 305 305 305 305 305 305 305 305 305 305 305 305 306 306 305 305 306 306 306 306 306 307 307 307 307 306 306 306 306 306 306 306 306 306 307 306 307 307 307 307 308 307 307 307 306 306 305 306 306 306 308 304 301 302 302 302 302 302 302 302 302 303 302 302 303 302 301 302 302 302 302 302 302 303 303 304 304 303 303 303
306 306 306 306 306 306 306 306 305 305 305 305 305 305 305 305 305 305 305 305 305 305 305 306 306 305 306 306 306 306 307 307 306 306 306 305 306 305 306 306 306 306 306 306 307 306 307 307 307 307 307 306 306 307 305 307 309 306 305 303 300 301 301 301 302 302 302 301 302 302 301 300 300 301 301 301 301 302 302 302 301 301 301 303 303 303 303 302
306 306 306 306 306 306 306 306 305 305 305 306 305 306 306 306 306 306 305 306 305 305 305 305 305 306 306 306 306 307 307 306 306 306 306 306 306 305 305 305 306 306 306 306 306 306 307 306 307 307 307 307 306 307 305 306 308 305 303 302 301 302 302 301 301 301 301 301 301 302 301 299 299 302 303 301 300 301 301 301 301 301 301 302 302 302 302 301
305 306 306 306 305 305 305 305 305 305 305 306 306 306 306 306 306 306 306 306 306 306 305 305 306 307 307 307 306 306 306 306 306 306 306 306 306 305 305 305 306 306 306 306 306 306 306 306 307 307 307 308 306 305 304 305 305 303 302 303 302 302 302 300 300 300 301 301 301 302 301 299 300 302 301 299 298 300 301 301 300 301 301 301 301 301 300 300
306 305 306 306 305 305 305 306 306 306 306 306 306 306 306 307 307 307 306 306 306 306 306 306 307 308 308 307 307 307 307 307 307 306 306 306 306 306 305 305 306 306 306 306 306 306 306 306 306 307 308 307 307 306 305 305 304 303 303 306 308 308 306 302 300 300 300 302 301 301 304 304 302 300 299 297 298 299 301 300 299 299 299 299 299 299 298 298
306 305 305 305 305 306 305 306 306 306 307 307 307 307 307 307 307 307 307 307 307 306 307 307 308 309 308 307 307 307 307 306 307 306 306 306 305 306 305 305 306 306 306 306 306 306 305 306 306 307 307 307 307 305 305 303 302 304 304 307 312 315 313 303 299 300 300 302 301 301 309 310 302 298 297 298 298 299 300 298 298 298 298 298 298 297 296 295
306 305 306 306 306 306 306 306 307 307 307 307 308 308 308 307 308 308 307 307 307 307 309 309 309 309 307 307 307 306 307 306 306 306 306 306 306 306 306 306 306 306 306 306 306 306 305 306 306 307 306 307 305 304 309 308 307 308 304 309 314 312 318 307 298 300 301 302 301 302 311 311 303 298 297 297 299 300 298 296 297 297 296 296 296 296 295 294
306 306 306 307 307 307 307 306 307 307 307 307 307 308 308 308 308 307 308 308 308 309 311 309 308 308 307 307 307 306 307 306 306 306 306 306 306 306 306 306 306 306 306 306 306 306 306 306 306 307 305 306 306 308 314 313 313 313 306 316 316 309 321 314 298 298 302 302 301 304 312 309 301 297 296 296 298 300 297 294 295 295 295 295 294 294 294 293
306 306 307 307 308 308 307 307 307 307 307 307 308 308 309 309 308 308 308 308 309 310 310 309 308 308 308 308 307 307 306 306 306 306 306 306 306 306 306 306 307 306 305 305 306 305 306 306 305 306 304 304 310 317 318 313 318 316 309 314 316 310 317 314 301 297 299 302 302 303 310 308 300 295 295 295 297 299 295 293 293 293 293 293 293 293 293 293
306 307 307 307 308 307 307 307 307 307 307 307 307 309 309 309 309 309 310 309 310 310 309 308 308 307 308 307 307 306 306 306 306 306 306 306 306 306 306 307 307 306 306 306 306 306 306 306 305 306 306 306 311 317 316 316 322 317 310 312 313 310 310 312 309 300 298 302 303 303 306 304 297 294 295 294 296 296 293 292 292 292 293 292 292 292 292 293
306 307 308 308 307 307 307 307 307 307 307 307 307 308 309 308 309 310 310 309 309 309 309 308 308 309 308 307 306 306 306 306 306 306 306 306 306 306 306 307 307 306 306 305 305 306 306 305 306 308 309 310 312 313 313 318 318 310 309 311 310 309 307 311 312 303 300 304 304 303 306 303 296 293 294 293 294 294 292 292 292 292 292 292 292 292 292 292
306 307 308 307 307 307 307 307 307 307 307 307 307 307 308 307 308 310 308 307 308 309 309 308 308 309 308 307 306 306 307 306 306 306 306 306 306 306 307 307 307 306 305 306 307 306 305 306 306 309 312 313 313 313 313 316 313 308 309 309 308 309 307 309 310 303 300 304 306 304 305 302 296 294 293 293 293 293 293 292 292 292 292 291 291 291 291 291
306 308 307 307 308 307 307 307 307 307 307 307 307 307 307 306 308 311 307 307 308 308 308 307 306 306 306 306 306 306 307 306 306 306 306 307 306 306 307 306 307 307 307 308 308 306 305 309 312 312 313 312 311 310 309 310 310 308 308 308 307 307 308 308 307 302 298 303 307 303 302 299 295 294 293 293 294 293 293 292 292 292 291 291 290 291 291 290
306 307 307 307 307 307 307 307 308 307 307 307 307 307 306 305 308 309 306 306 308 308 308 307 306 306 306 306 306 306 307 306 306 306 306 306 306 307 306 307 308 307 306 305 306 307 307 312 315 311 308 306 306 306 306 307 308 307 307 306 307 307 308 306 304 303 300 303 305 301 301 297 293 294 292 292 294 292 292 292 292 292 291 291 290 290 290 289
307 307 307 307 306 307 307 307 307 307 307 307 307 306 305 305 306 307 306 307 308 308 308 307 306 306 306 306 306 306 307 306 306 306 306 306 307 307 306 309 311 308 307 306 309 312 313 315 312 304 301 302 305 305 306 307 308 308 307 306 308 308 308 306 303 304 302 304 306 302 302 297 292 293 292 292 292 291 292 292 292 292 290 290 290 290 289 289
306 306 307 306 306 307 306 307 307 306 307 306 306 306 305 305 305 305 306 307 308 308 308 307 306 306 306 306 306 306 306 305 306 306 306 306 306 307 306 309 313 311 312 313 311 311 312 312 305 299 299 303 305 305 306 307 307 308 305 306 310 306 306 308 305 304 302 302 303 303 301 296 293 294 291 291 291 290 292 292 292 292 291 290 290 290 290 289
307 307 306 306 307 306 307 307 306 307 307 306 306 305 305 305 304 306 307 307 307 308 308 307 307 306 306 306 305 306 306 304 305 305 305 306 305 306 306 305 310 312 312 313 311 310 310 305 298 298 302 304 304 306 306 305 308 310 306 305 308 305 303 306 304 303 303 301 300 302 302 298 294 295 292 291 291 290 291 292 292 291 290 290 290 290 290 289
307 307 306 306 306 306 307 306 306 307 306 306 306 305 305 304 304 306 307 307 307 309 309 307 307 306 305 306 305 305 306 305 304 305 305 304 304 306 305 303 306 311 312 310 308 310 309 301 297 302 306 305 305 306 305 304 306 310 307 303 303 304 303 304 303 304 306 304 299 300 305 303 295 294 293 292 292 290 290 290 290 291 290 290 290 289 289 289
307 307 307 306 306 307 306 306 306 306 306 306 305 305 305 304 305 306 309 314 312 307 308 308 307 307 306 306 306 305 306 306 304 304 305 304 304 305 304 304 304 307 310 307 306 307 304 299 299 305 307 307 307 305 303 304 308 307 304 301 302 303 303 304 302 304 308 306 299 299 304 304 296 294 294 293 292 291 290 289 289 290 290 289 289 289 289 289
307 307 306 306 307 306 306 306 306 305 306 305 305 305 304 304 307 306 311 321 315 306 307 309 307 307 306 305 305 306 307 305 305 305 304 304 304 304 305 306 305 305 304 304 306 305 302 303 304 306 309 309 308 305 302 304 308 306 302 301 302 302 303 303 301 303 305 303 301 300 301 303 301 296 294 293 292 291 290 289 289 289 289 289 289 289 289 289
306 306 306 306 306 306 306 305 305 305 305 305 305 305 304 306 308 307 313 317 310 306 308 308 307 305 305 305 305 305 305 304 305 306 304 303 303 303 306 306 306 307 301 302 309 306 301 305 305 305 308 307 305 303 301 302 304 304 301 300 300 300 301 302 302 304 302 300 304 303 299 303 304 296 293 294 292 291 291 290 289 289 289 289 288 289 289 289
306 305 306 306 305 306 305 304 305 305 304 305 305 304 306 308 307 308 315 312 305 306 307 306 307 305 304 306 305 304 304 303 303 304 303 303 303 304 306 305 303 307 301 301 311 308 301 303 301 302 305 305 303 301 300 302 302 299 297 298 298 299 300 301 303 304 302 303 308 304 299 304 305 296 292 295 294 293 292 290 289 289 289 289 288 289 289 289
305 306 305 305 306 305 305 305 305 304 305 305 304 305 306 308 313 316 313 308 305 305 305 305 305 303 304 309 308 303 302 303 301 303 304 302 303 303 303 302 301 306 306 303 309 306 300 300 300 300 302 301 300 298 296 299 298 296 297 299 299 299 300 302 303 302 304 309 307 301 298 302 305 298 293 294 294 293 293 291 289 289 288 289 288 289 289 289
305 306 305 305 305 305 305 305 304 304 305 304 304 307 306 309 323 326 308 303 305 305 306 306 304 304 306 307 307 303 303 303 300 303 306 303 302 302 302 303 303 311 315 309 309 306 301 302 301 299 298 298 298 298 296 295 294 297 300 301 301 302 301 303 305 303 306 311 304 299 299 301 304 301 294 293 291 290 292 292 290 288 288 288 288 288 289 289
306 305 305 305 305 305 305 304 305 305 304 305 306 307 309 312 318 316 306 304 305 304 305 305 303 306 305 303 305 304 304 304 301 302 305 304 303 300 301 302 301 310 316 309 308 308 306 304 300 298 298 297 299 302 300 298 298 301 304 305 307 308 306 306 308 305 306 307 301 298 299 300 301 297 292 291 290 289 291 290 289 288 288 288 288 288 288 288
305 305 304 305 304 305 305 304 305 305 304 307 305 305 319 324 310 304 307 308 303 301 303 304 304 305 304 305 306 303 302 303 302 301 300 304 306 302 299 299 299 304 307 304 304 307 310 307 300 301 300 296 299 303 304 303 302 302 304 307 308 307 307 309 308 303 303 304 298 296 299 301 300 294 289 289 289 288 289 289 289 289 289 289 288 288 288 288
304 304 304 304 305 305 305 305 306 305 306 307 305 309 321 320 305 302 307 308 303 302 302 302 305 304 303 304 304 302 303 302 301 303 303 306 309 306 303 301 300 302 303 303 302 302 307 307 301 302 300 298 300 300 300 301 301 300 299 302 305 306 304 307 307 304 304 303 299 297 299 303 301 295 289 288 288 287 288 288 288 288 289 289 288 288 288 287
304 304 304 305 306 304 305 306 306 307 307 306 312 319 316 308 304 304 305 305 304 304 303 300 302 307 308 306 303 300 301 303 302 303 306 307 306 304 304 301 300 300 302 304 301 299 304 305 301 298 296 298 300 297 295 299 301 298 297 301 305 305 303 303 303 301 300 301 302 300 299 297 295 292 289 288 288 287 287 287 287 287 287 287 287 287 287 287
304 304 305 306 305 305 306 306 306 308 307 308 318 318 309 304 303 303 302 302 302 302 304 304 304 309 312 310 309 304 300 302 304 303 304 304 302 302 302 301 299 298 300 302 301 301 304 304 302 298 297 297 297 296 295 297 300 300 299 302 300 297 300 303 300 296 297 301 302 300 299 296 293 292 290 289 289 287 287 287 286 287 287 286 287 286 286 287
304 305 306 305 304 306 307 305 306 308 305 311 320 312 303 302 300 301 301 301 300 299 303 307 304 304 307 308 312 310 302 301 303 303 303 302 301 301 301 301 298 296 297 298 300 300 300 303 303 300 300 297 293 294 295 293 297 302 303 301 297 295 299 302 302 301 302 304 302 299 299 300 300 297 291 289 290 289 287 287 286 286 287 286 287 286 286 286
305 306 306 305 305 307 307 305 306 306 306 314 318 309 303 301 299 300 300 300 301 300 302 306 303 301 304 305 309 308 304 304 305 303 303 302 301 300 300 300 297 296 295 295 299 299 298 303 304 299 300 298 293 295 299 296 295 298 298 297 297 300 303 302 302 304 303 302 302 300 297 299 301 300 295 293 291 289 288 287 286 286 287 287 287 286 286 286
305 307 306 304 305 307 306 306 304 305 309 314 314 308 302 301 300 300 301 300 300 300 302 303 301 302 304 303 306 307 304 304 304 303 302 302 302 299 298 299 297 297 295 294 299 300 298 302 304 300 298 297 297 298 302 302 298 296 298 298 299 302 303 301 299 301 302 301 302 301 300 301 299 297 297 296 292 289 288 287 287 287 287 287 287 286 286 286
306 307 306 304 306 306 306 306 305 309 312 308 307 307 302 301 302 301 301 301 299 300 302 301 300 303 305 303 302 303 303 304 303 303 302 301 301 300 297 297 298 298 295 294 297 299 298 300 302 303 300 298 300 299 298 299 299 300 303 302 301 301 300 299 296 297 300 302 302 301 302 303 297 291 293 294 292 289 288 287 287 287 287 287 286 286 286 286
306 307 306 304 306 306 305 307 304 306 310 304 303 306 304 303 303 300 301 302 300 300 300 301 301 303 304 304 302 300 303 305 304 303 303 301 300 300 297 295 296 297 296 297 298 298 299 299 300 303 303 301 301 296 294 295 296 300 303 300 299 300 300 301 300 297 297 299 301 300 301 302 295 289 289 290 289 288 287 287 287 287 287 287 286 286 286 285
306 307 306 305 306 305 306 308 299 299 308 305 301 304 304 303 302 300 301 301 301 300 299 300 302 302 304 303 301 300 302 305 305 302 302 301 300 300 297 294 295 295 296 299 297 295 297 299 300 302 301 300 298 293 291 292 293 297 299 297 298 299 300 303 303 300 297 297 297 297 300 300 293 288 288 287 287 287 287 287 287 286 287 286 286 286 285 285
305 306 305 305 306 305 307 309 303 303 306 303 299 300 301 301 301 301 301 300 300 299 300 302 301 301 302 300 301 302 301 303 305 301 301 301 299 297 296 295 295 293 295 297 296 294 296 299 300 302 302 300 297 294 291 291 295 298 298 296 297 297 297 299 300 298 297 298 298 297 300 299 292 287 287 287 287 287 287 287 286 286 286 286 286 285 285 284
305 305 305 306 306 306 308 309 309 310 307 302 301 301 300 300 300 302 302 301 301 299 301 303 300 299 300 298 300 302 300 302 303 300 300 300 298 296 295 296 295 294 295 297 297 296 297 300 300 302 305 303 302 301 299 298 299 299 297 295 294 294 295 295 294 295 298 298 298 299 302 299 292 288 287 287 286 286 286 286 286 286 286 285 285 285 284 284
305 305 305 305 306 306 306 304 308 315 312 306 304 302 302 301 300 301 302 300 299 298 300 302 298 299 300 298 300 302 301 301 301 301 300 300 298 296 295 296 295 294 295 295 294 295 297 299 299 301 304 303 303 303 302 300 299 297 296 295 293 293 295 295 296 298 300 297 295 299 301 296 291 290 289 287 286 286 286 286 286 285 285 285 284 284 284 283
306 307 305 307 306 304 303 300 303 311 310 307 305 302 302 303 300 299 300 301 299 298 299 301 298 299 301 301 303 305 303 301 300 301 302 303 301 296 294 296 295 294 295 295 294 295 297 297 297 300 303 302 302 301 298 297 297 297 298 296 294 294 293 294 297 299 299 297 296 296 295 293 292 290 288 286 285 285 285 285 285 285 284 284 284 283 282 281
307 306 304 306 306 304 305 302 300 302 303 304 304 301 303 306 302 300 300 300 300 298 298 299 298 300 302 302 303 304 303 301 300 300 300 301 301 296 293 296 295 294 295 294 292 295 299 298 295 296 300 300 299 298 295 295 296 297 298 296 295 295 292 294 298 296 295 297 298 294 291 291 292 290 287 285 285 285 285 285 284 284 284 284 283 282 281 280
307 304 301 304 305 304 306 305 301 299 299 302 303 300 304 308 304 303 302 300 299 299 299 300 300 300 301 300 300 302 303 302 301 300 300 299 299 298 297 295 295 294 295 294 292 293 299 299 294 294 299 298 297 296 294 295 296 296 297 295 294 295 294 294 296 294 292 296 297 294 291 291 290 288 286 285 284 284 284 284 284 284 283 283 282 281 280 279
305 304 302 303 303 301 302 302 300 299 299 302 305 303 305 308 304 301 300 301 302 300 298 301 302 301 301 299 299 301 303 302 301 301 300 299 298 300 300 297 295 295 294 295 292 290 295 299 295 294 298 298 296 295 294 294 295 295 294 293 293 294 294 294 294 292 291 294 295 292 290 290 288 286 285 284 285 285 284 284 284 283 283 282 281 280 278 278
305 305 303 303 303 299 300 300 300 304 304 302 304 303 302 306 306 302 299 301 304 302 299 302 303 300 300 300 300 301 300 299 299 299 299 298 298 298 298 297 296 295 295 296 294 292 294 297 294 294 298 300 297 295 294 294 294 294 293 293 292 293 293 292 293 292 291 293 293 290 290 290 287 284 284 285 285 284 284 284 283 283 282 281 280 278 277 277
305 305 304 306 305 299 300 298 298 308 312 304 303 303 302 305 304 301 301 300 300 301 300 300 301 299 298 299 301 302 298 296 297 297 296 296 297 297 296 294 294 296 297 296 295 295 296 296 295 296 299 302 299 296 295 293 293 294 294 293 293 294 293 292 292 292 291 292 292 290 291 290 287 284 284 284 284 284 284 283 283 282 281 280 278 277 276 276
305 306 304 307 306 299 298 298 299 308 309 300 300 302 301 302 300 298 302 301 299 300 300 298 298 299 301 301 300 299 297 295 295 296 295 295 295 294 294 294 293 294 297 296 294 294 295 297 298 296 298 302 300 296 293 292 294 296 293 291 292 292 292 292 292 292 291 290 291 291 290 287 285 284 284 284 284 283 283 283 282 281 280 278 277 276 275 275
Wind_Speed
5 6 7 7 6 5 5 5 5 5 5 4 4 4 4 4 4 4 4 4 5 6 7 8 10 10 10 11 11 12 12 11 9 7 8 9 9 10 10 8 8 8 7 7 7 6 6 6 6 6 5 4 3 2 3 3 6 6 3 2 3 3 4 6 7 7 4 1 3 8 12 8 1 6 7 2 4 6 7 9 9 10 13 13 11 8 5 5
6 6 6 6 5 5 5 5 5 6 6 6 5 5 5 5 5 4 4 5 6 7 9 10 11 10 11 11 12 13 13 11 8 5 6 9 10 10 8 7 7 7 7 7 7 7 7 7 6 6 5 4 3 3 4 3 4 4 3 2 4 5 5 5 7 8 4 2 5 6 10 10 3 5 8 3 3 5 6 8 11 14 15 17 16 13 10 8
6 6 5 5 6 6 6 6 6 7 7 7 7 7 7 6 6 5 5 6 7 9 10 11 11 11 12 12 13 13 13 10 6 5 8 10 11 10 8 7 6 6 6 6 7 7 7 7 6 6 4 4 3 4 4 2 2 2 3 2 5 6 4 4 5 7 6 3 5 5 8 11 5 6 7 4 1 2 6 7 10 15 17 18 18 16 13 11
6 6 6 6 6 6 7 7 7 7 7 7 8 8 8 7 7 7 7 7 8 10 10 11 10 11 12 12 12 12 12 8 3 7 10 11 12 11 9 7 6 6 5 6 6 6 6 5 5 5 3 3 2 4 4 3 3 2 4 3 4 5 1 4 5 4 6 3 4 7 7 7 8 8 7 5 1 3 7 9 8 9 10 11 14 15 14 13
6 5 5 6 6 7 7 7 7 7 8 8 8 8 8 7 7 7 7 7 8 9 9 10 10 12 12 12 11 11 11 4 2 8 12 12 12 12 10 9 8 7 6 5 5 5 5 4 4 3 2 2 1 2 2 3 4 2 4 3 3 5 0 2 5 5 6 4 5 8 6 4 7 8 8 7 4 3 1 1 2 2 2 3 7 11 13 13
5 5 4 5 6 7 7 7 7 8 8 8 8 8 8 8 7 6 6 6 7 7 8 9 10 11 12 12 11 11 8 2 4 10 11 12 12 11 11 10 9 8 7 6 5 4 4 4 3 2 0 1 2 3 2 4 5 2 3 2 2 5 1 1 6 6 6 5 6 7 5 5 6 5 7 8 7 5 4 4 2 0 0 1 3 5 8 9
5 5 4 5 6 7 8 7 7 8 8 9 9 9 9 8 8 7 7 7 7 8 8 9 10 11 12 12 11 10 7 2 5 9 11 13 13 11 11 11 9 8 7 7 6 5 5 4 3 2 1 1 2 3 1 3 4 3 3 2 2 5 2 1 5 6 6 6 5 6 6 6 5 3 3 3 4 7 10 13 12 8 4 1 1 4 5 6
5 5 5 6 7 8 8 7 8 9 9 10 10 10 10 9 9 9 9 9 10 10 9 9 10 12 13 13 11 9 5 4 6 9 11 12 12 12 11 11 10 10 8 8 7 6 6 5 5 4 2 1 3 3 1 1 1 3 3 2 1 4 4 3 5 6 6 5 5 6 6 5 5 2 2 1 7 9 8 8 12 13 10 5 3 6 7 8
6 6 6 6 7 8 8 8 8 9 10 11 11 11 11 10 10 10 10 11 12 11 10 10 10 13 14 13 13 7 3 4 8 10 11 10 11 11 11 11 11 11 9 8 7 6 5 4 5 5 3 3 4 3 3 2 2 3 3 2 2 3 2 4 6 7 7 5 6 6 2 3 4 1 2 4 12 11 8 4 2 6 9 8 7 8 9 9
8 7 7 7 8 9 9 9 9 9 10 11 11 11 11 11 11 11 11 12 12 12 10 10 11 13 14 13 12 6 4 7 10 11 11 11 11 10 10 11 11 11 9 7 6 5 3 3 3 4 3 2 4 2 3 3 2 1 2 2 3 2 1 4 6 6 6 5 6 5 1 3 3 1 1 8 14 8 6 4 6 7 9 10 10 10 9 9
9 9 9 9 9 9 9 9 9 10 11 12 12 12 11 11 11 11 11 11 12 12 10 10 11 13 14 13 8 3 5 9 9 11 12 12 11 10 9 9 9 9 8 7 5 4 3 2 2 3 2 2 3 2 3 4 1 1 2 3 3 1 1 2 3 4 4 3 5 4 3 3 2 3 3 13 11 6 4 7 9 9 11 11 10 10 9 8
11 11 10 10 10 10 11 10 11 11 12 14 13 13 13 12 12 11 11 12 12 11 11 10 11 14 15 11 6 4 8 9 9 11 12 13 12 10 8 8 7 7 7 6 4 4 3 1 2 3 3 4 4 1 3 3 2 1 2 2 4 3 2 2 1 4 3 2 4 4 1 3 2 3 11 14 6 5 6 11 12 12 12 11 12 12 13 12
12 11 11 10 10 11 11 11 11 12 13 14 14 14 14 13 12 11 11 12 12 12 11 11 12 15 14 8 5 7 8 8 10 11 11 13 12 10 9 8 6 5 5 5 4 3 3 2 1 3 5 4 3 2 3 3 2 1 2 1 4 6 3 3 2 3 3 2 4 3 1 3 1 5 16 13 4 5 11 16 16 17 17 17 17 18 19 18
12 11 11 11 11 11 11 11 12 12 13 14 14 14 13 13 12 11 11 11 12 11 11 12 14 13 10 5 5 7 7 9 11 11 11 11 9 9 8 8 8 6 5 5 4 3 3 2 1 3 4 3 4 5 2 3 2 1 1 1 1 2 4 3 3 1 3 1 2 4 2 3 2 10 19 13 5 8 16 20 19 21 22 23 24 24 26 26
11 10 11 11 11 10 10 11 11 12 13 14 14 14 14 13 12 11 11 12 11 10 11 13 12 10 7 4 4 7 8 10 12 12 12 10 7 6 5 7 9 7 5 5 3 3 2 1 1 2 4 4 5 5 2 4 3 2 1 3 2 1 4 5 4 3 2 0 0 3 1 3 1 11 19 10 6 11 19 22 22 24 26 27 29 30 31 31
11 10 11 11 11 10 10 10 10 11 13 14 14 14 14 12 12 12 12 12 10 9 12 11 9 8 5 3 4 8 12 14 14 13 11 10 8 6 6 6 6 5 4 4 3 1 0 1 2 3 4 3 4 4 3 3 3 3 1 3 3 1 3 4 3 5 3 0 2 2 2 1 1 12 18 8 8 15 22 23 23 26 28 30 32 33 34 34
10 9 10 11 10 10 10 10 10 11 13 13 14 14 12 12 12 11 9 9 9 11 10 5 9 9 2 3 6 10 17 17 13 11 9 9 9 7 7 6 4 3 3 4 3 3 1 1 3 2 2 1 2 4 3 3 3 3 2 1 3 2 2 3 2 5 6 1 1 3 1 2 2 10 16 9 11 19 23 21 23 25 27 29 31 33 33 33
9 8 9 9 9 9 9 10 11 12 13 13 14 13 10 12 12 7 8 10 10 9 5 5 11 5 1 7 10 12 20 17 9 9 9 10 10 9 7 5 2 2 3 3 4 3 1 1 4 1 3 3 2 5 2 4 3 2 2 1 3 2 2 3 3 3 6 2 1 2 0 1 4 8 14 12 14 21 21 20 24 25 27 28 30 32 32 32
7 7 8 8 7 8 9 10 12 13 14 14 15 13 10 15 11 4 10 14 8 5 2 6 10 2 3 11 9 12 21 13 6 10 10 10 11 8 6 4 2 2 3 2 2 1 1 1 3 1 1 2 2 4 4 6 4 2 3 3 3 3 3 4 4 3 2 2 1 0 1 2 5 6 11 12 16 21 20 21 23 24 25 27 29 30 31 32
6 5 7 8 7 8 8 10 12 14 16 16 18 15 11 15 8 3 13 14 9 7 3 5 8 2 5 10 8 15 19 8 4 11 13 12 11 7 5 4 2 1 1 1 1 2 3 1 1 3 5 5 5 4 3 3 3 2 2 2 3 3 4 4 2 3 1 1 1 2 5 4 4 4 7 10 16 18 17 19 20 21 23 25 28 29 30 30
4 4 6 8 8 9 10 12 13 15 17 17 19 15 10 11 6 5 13 9 8 9 6 6 7 5 8 8 10 17 17 7 4 11 14 13 11 6 4 4 2 2 2 1 1 1 3 1 3 4 5 4 2 2 4 4 3 3 2 2 2 3 4 3 1 4 2 1 1 2 5 5 4 3 6 9 11 10 11 15 18 20 22 24 26 28 28 28
4 5 6 7 8 9 11 13 14 14 16 16 18 17 12 10 7 6 8 3 4 7 7 8 6 7 12 9 11 18 14 7 6 12 16 15 11 6 3 5 4 1 4 2 1 3 3 2 5 4 2 2 3 3 4 4 3 3 1 1 2 3 3 3 2 4 2 0 2 2 5 4 3 3 7 9 8 8 11 14 16 20 21 22 24 26 26 26
5 6 6 8 9 10 11 13 14 14 16 16 18 18 13 11 9 7 7 2 2 6 8 9 6 8 15 10 12 17 10 6 7 14 20 17 13 9 5 5 3 1 5 4 1 1 2 3 3 2 1 2 2 3 4 4 2 1 2 1 3 2 1 2 3 4 2 1 1 3 4 2 2 3 6 9 11 13 14 15 16 18 20 20 22 23 24 23
6 6 7 9 9 10 12 12 13 14 17 17 17 17 13 11 10 7 7 1 1 6 6 9 8 10 15 11 14 15 5 5 9 13 19 18 13 9 4 4 3 2 3 2 5 3 2 3 1 2 2 1 0 3 4 2 3 2 3 3 3 2 1 4 3 4 2 2 2 3 2 1 1 3 4 6 11 14 14 16 16 16 17 18 20 21 20 20
6 7 7 9 10 11 12 11 12 15 17 16 15 16 13 11 9 7 5 2 1 6 5 6 7 9 14 13 15 13 1 2 11 14 16 17 14 6 2 3 3 3 1 1 4 2 2 2 1 1 3 3 1 2 1 3 1 4 3 4 4 3 2 2 3 4 3 3 1 2 1 2 1 2 2 2 5 8 10 13 14 13 15 17 18 19 18 17
7 8 8 10 10 11 12 11 13 16 16 15 15 16 12 10 8 5 4 3 1 4 4 6 5 8 14 14 16 10 2 3 11 14 15 16 15 5 1 4 2 2 1 3 3 1 1 2 1 2 3 4 4 1 1 3 2 3 2 3 4 4 2 0 3 3 1 1 1 2 1 3 1 1 2 2 4 4 6 9 10 12 13 15 17 18 17 15
8 9 9 11 11 12 12 12 14 15 14 13 14 14 11 10 7 2 3 4 3 3 3 5 3 8 13 13 15 7 2 9 10 11 16 14 14 6 1 4 2 2 0 2 3 0 1 3 4 4 4 4 4 1 1 3 4 2 2 4 3 2 1 2 2 2 2 2 2 2 2 2 3 0 1 2 5 4 4 6 7 9 12 13 15 16 15 13
9 10 11 12 13 13 13 13 14 14 13 13 13 13 11 9 5 1 4 4 3 3 2 4 4 10 13 8 12 10 2 9 6 8 15 13 13 7 2 2 2 0 3 1 1 2 1 2 2 3 4 3 1 1 2 3 1 3 2 3 1 1 2 3 4 2 0 2 3 3 2 1 3 0 1 1 3 3 3 3 4 8 11 13 14 14 13 11
10 11 12 13 13 14 13 13 13 12 12 13 12 12 10 7 3 2 5 2 3 3 2 6 5 12 16 5 8 13 6 7 7 7 11 10 11 6 3 2 4 3 3 2 2 3 0 1 1 2 3 1 2 2 2 3 1 1 4 3 3 4 3 3 3 3 2 2 3 4 1 1 2 0 1 1 2 2 3 2 3 7 10 12 13 13 11 8
11 12 12 13 13 13 12 12 12 12 13 13 12 11 8 4 2 4 4 1 1 3 4 6 5 10 17 7 6 14 7 5 10 10 10 11 13 11 6 2 4 4 2 5 2 2 1 1 1 2 1 2 2 1 0 2 1 3 4 3 3 4 4 3 2 3 4 2 4 5 2 2 1 1 2 2 1 2 4 3 3 8 11 11 12 11 9 6
11 11 12 13 12 12 12 11 12 12 13 12 11 10 4 2 4 6 2 2 1 4 5 5 5 6 11 5 3 10 6 6 12 11 9 9 14 16 9 3 5 5 4 6 3 2 3 3 1 2 1 1 1 1 2 1 1 3 2 2 2 3 3 3 4 3 3 2 4 4 2 2 1 2 1 1 3 3 5 6 4 8 11 12 11 9 6 4
11 11 11 12 12 12 12 13 13 13 12 11 10 7 1 2 4 2 2 4 2 3 3 2 4 5 5 3 2 6 4 5 9 7 4 4 6 8 7 2 3 4 4 4 4 4 3 0 2 2 1 2 1 1 3 3 3 3 3 4 3 4 4 3 3 2 1 3 2 1 1 1 2 1 2 5 6 5 4 9 9 11 13 12 11 8 5 2
10 10 10 11 11 12 14 14 14 13 11 11 8 4 4 5 2 2 3 4 1 2 2 2 4 4 3 3 4 5 2 3 6 5 1 2 4 3 3 2 2 2 2 2 3 5 4 3 4 2 1 4 2 2 3 3 4 4 2 3 3 2 3 3 3 2 3 3 2 2 1 1 2 1 3 5 5 3 10 15 14 14 14 12 9 6 2 1
9 9 9 9 10 13 14 13 13 11 10 10 5 2 7 4 1 1 2 3 2 3 2 1 5 5 2 3 3 4 2 2 5 5 3 3 5 3 4 5 5 3 1 2 2 2 2 4 3 1 2 4 3 2 1 1 2 2 2 3 2 2 1 3 3 2 4 4 3 3 1 2 2 2 3 2 5 10 16 17 15 14 12 10 7 4 1 3
8 8 7 8 11 13 13 12 11 11 9 7 4 6 5 1 3 0 2 4 2 4 3 2 3 4 3 3 3 2 2 2 4 5 5 4 3 2 3 4 5 3 2 3 1 0 1 5 4 2 2 2 2 1 1 3 2 1 1 3 2 2 3 1 2 3 2 2 2 2 2 2 1 1 2 4 8 11 13 13 14 13 10 8 6 3 4 6
7 6 6 8 13 13 12 11 10 9 7 3 6 6 2 2 2 2 1 2 1 3 5 5 4 4 4 4 4 4 2 1 3 3 3 2 1 1 1 2 3 4 3 2 1 1 2 5 4 2 2 3 3 2 0 2 0 0 1 1 1 2 5 3 1 1 3 1 2 1 1 2 1 0 1 3 4 4 6 8 10 10 8 6 5 5 7 8
6 5 5 10 14 12 11 10 9 7 5 5 7 2 3 2 0 2 0 2 1 1 3 4 3 3 3 3 4 6 4 2 2 3 2 1 0 1 2 1 1 2 1 1 1 1 1 4 5 2 1 1 2 0 3 3 2 2 1 2 1 1 4 3 0 3 4 0 2 1 1 3 2 1 2 0 2 2 3 4 6 6 5 4 6 7 9 10
6 3 5 12 13 10 9 10 8 4 4 8 6 2 1 0 1 1 1 2 1 1 4 2 2 1 1 1 3 6 5 3 3 3 2 1 1 1 1 2 1 2 2 1 1 1 1 3 6 1 1 3 2 2 3 4 3 3 1 2 2 2 0 2 1 2 2 2 3 3 3 2 1 2 3 4 6 5 4 3 3 3 2 3 6 9 11 13
5 1 6 13 12 9 10 9 6 3 6 7 3 2 0 0 1 1 2 2 0 1 2 0 1 2 0 1 2 4 3 2 3 3 2 1 2 1 2 1 1 2 4 1 2 1 1 0 4 4 2 2 3 3 3 5 4 3 2 2 2 3 3 0 1 1 1 2 2 3 4 2 2 3 3 5 6 6 4 2 2 2 1 4 7 10 13 15
3 1 6 14 11 8 8 6 6 7 6 3 2 2 0 0 1 2 2 2 1 1 1 1 1 2 2 1 1 2 2 1 1 1 1 1 1 2 3 1 1 4 5 2 2 1 1 1 3 5 3 2 2 2 2 2 2 2 3 3 3 1 0 0 1 1 1 1 1 2 4 4 2 0 2 5 3 4 5 4 4 3 2 6 9 12 14 16
3 1 7 13 9 7 5 6 10 8 5 2 2 1 1 1 1 2 2 2 1 1 0 2 2 0 1 2 1 1 1 2 1 1 1 1 2 2 2 2 2 4 4 3 2 2 1 1 2 4 5 2 2 3 2 3 3 2 2 2 1 0 2 2 2 2 2 2 3 1 3 5 2 1 2 3 1 5 7 6 4 1 5 8 10 13 15 17
6 2 8 12 7 4 6 7 7 4 4 3 2 2 1 1 2 2 2 2 1 1 0 2 1 1 1 1 2 1 1 2 1 0 1 1 0 1 2 3 3 2 1 1 1 1 1 2 1 4 4 3 5 4 2 1 2 3 2 2 3 2 3 4 2 3 1 0 2 3 1 4 2 1 2 2 5 7 7 4 1 4 7 10 13 15 17 18
9 6 10 11 5 3 6 5 5 4 3 2 1 1 2 2 2 2 2 3 2 1 1 1 0 1 1 1 1 1 1 2 2 1 1 2 1 1 2 4 4 1 1 0 2 2 1 2 2 4 4 4 5 3 2 1 3 3 3 2 2 1 2 4 5 3 1 2 1 2 2 4 1 2 3 5 6 6 4 2 5 9 12 14 16 18 19 18
11 12 15 14 5 2 5 3 2 2 2 1 2 3 3 2 3 3 2 3 3 1 1 0 0 1 0 1 1 1 1 1 2 1 1 1 1 1 2 4 4 2 2 1 0 2 2 0 2 3 5 6 6 5 5 4 3 2 2 2 2 3 4 3 2 2 0 3 3 3 3 4 1 2 3 4 5 4 4 7 9 12 14 16 18 19 18 17
5 8 15 18 12 9 7 4 4 4 1 1 3 4 3 2 4 4 1 1 3 1 1 1 1 1 1 0 0 2 1 0 2 2 2 1 2 1 3 4 3 2 2 1 0 1 1 1 2 3 2 3 4 4 3 3 3 2 1 3 3 3 4 1 0 3 0 3 2 3 4 3 1 1 2 3 3 4 7 10 12 13 15 18 19 18 17 17
3 2 6 13 17 19 15 9 6 5 3 3 3 3 3 2 2 3 2 1 3 2 1 1 2 1 1 3 2 3 2 1 1 2 2 2 3 2 2 3 3 3 3 2 3 2 2 0 1 4 5 4 5 6 3 1 2 3 4 4 3 3 2 3 2 1 2 1 1 3 4 4 5 2 3 3 3 4 7 11 14 16 17 18 17 17 18 18
4 2 2 4 9 14 15 13 10 6 3 3 2 2 3 3 3 3 2 1 2 2 1 1 2 1 2 4 3 2 3 3 2 1 1 2 4 3 3 2 3 5 3 1 4 2 3 2 2 3 5 6 7 6 3 3 1 4 3 2 2 3 3 4 2 3 3 2 4 4 3 3 7 3 3 3 4 4 6 11 16 18 18 17 17 19 20 15
5 3 4 4 3 3 6 8 10 9 6 3 2 0 2 4 3 2 1 2 2 2 2 1 3 3 1 1 1 1 4 4 3 1 0 1 3 4 4 2 3 7 4 1 4 3 4 1 1 1 5 8 6 6 3 1 3 3 1 1 1 1 2 3 3 4 4 2 5 4 1 5 6 1 2 4 5 6 10 14 18 20 19 18 20 22 19 12
9 7 6 7 5 3 3 2 4 7 7 4 2 1 2 3 3 1 2 2 3 3 3 2 4 4 2 2 2 0 2 2 3 4 1 1 3 2 3 1 2 8 8 3 3 3 3 2 1 0 5 7 4 4 1 1 1 1 3 1 1 2 4 4 3 3 4 4 6 3 4 7 4 1 2 7 9 11 14 18 20 20 20 20 22 21 16 13
9 8 7 11 10 7 5 2 2 4 5 4 3 1 0 1 2 3 2 0 2 3 3 2 5 5 1 2 3 2 3 3 4 5 2 1 3 1 0 1 1 6 8 3 2 3 2 2 1 2 4 7 4 3 1 1 1 2 3 2 2 2 2 1 1 1 1 4 6 4 6 7 2 1 7 11 13 14 18 22 21 19 20 22 20 17 14 15
10 9 8 9 6 6 6 3 2 3 3 4 2 0 1 0 2 3 2 2 2 2 1 2 4 4 1 1 3 4 5 3 6 8 5 3 3 3 1 0 0 4 6 2 2 4 3 2 2 5 3 6 4 5 5 2 4 4 4 5 4 3 1 1 2 1 2 5 6 5 5 4 2 5 10 11 13 16 19 20 20 19 20 19 16 14 14 18
9 9 7 7 4 5 5 3 3 4 2 2 1 1 2 2 2 1 1 2 3 2 3 2 1 2 2 2 2 5 7 7 8 9 7 6 5 4 3 3 1 1 1 2 2 2 2 2 1 3 2 5 5 7 6 4 5 2 3 2 2 1 1 2 3 4 3 3 3 4 3 3 4 8 10 10 13 16 17 18 20 22 19 14 12 14 17 22
Wind_Direction
121 119 114 106 96 82 65 50 42 33 29 20 10 3 356 353 350 346 342 343 343 344 341 337 336 336 338 338 340 339 337 336 324 321 333 340 345 345 342 334 325 319 309 292 274 263 274 283 274 261 257 256 261 205 168 153 152 154 126 133 208 195 198 189 183 192 171 191 194 187 190 177 158 191 190 208 219 224 228 229 226 226 228 228 223 214 214 193
108 104 96 87 73 59 48 36 26 19 13 6 359 348 342 340 338 340 338 339 336 336 335 333 334 334 335 335 335 337 340 342 339 343 355 357 351 346 342 333 325 314 308 294 274 267 269 276 273 263 259 249 251 215 185 168 153 135 100 157 218 202 204 195 178 188 171 118 165 179 196 192 180 173 180 203 222 211 224 239 231 230 234 232 231 227 225 214
96 88 77 66 54 44 34 22 15 11 5 359 351 341 334 329 325 326 324 326 327 328 332 334 335 335 334 332 332 337 339 341 360 25 10 2 355 349 343 335 330 315 305 296 280 269 268 271 267 268 269 247 238 213 189 176 186 147 120 198 244 212 216 221 187 190 188 146 151 166 186 196 198 165 174 194 193 192 220 237 230 234 241 237 233 230 228 220
81 74 64 52 42 31 20 14 11 7 3 355 347 340 331 322 314 310 309 313 319 324 333 339 339 337 336 333 335 339 339 342 30 21 358 352 352 348 343 342 338 324 310 302 290 273 270 271 267 272 277 258 237 206 196 194 200 170 160 200 233 186 203 230 197 192 190 180 159 156 158 194 200 184 186 171 145 270 240 239 240 247 257 244 236 233 230 222
68 60 50 41 30 19 12 10 8 4 359 352 346 341 335 329 319 306 305 310 321 330 338 345 343 339 340 340 341 343 348 358 11 351 343 342 345 343 342 344 342 334 325 314 299 283 275 270 275 278 274 264 179 188 224 196 174 175 201 221 187 162 148 233 187 179 182 177 152 150 150 183 188 194 207 194 202 261 243 244 261 270 273 230 225 226 224 219
53 43 36 27 16 10 8 8 7 2 356 353 349 344 341 341 339 332 325 327 334 339 343 348 346 343 343 343 343 350 3 10 320 335 335 334 338 339 341 343 344 339 332 326 313 296 279 267 277 275 264 333 186 195 225 185 178 215 260 269 195 183 162 123 174 179 184 179 163 167 177 172 166 185 211 213 233 270 279 268 259 108 203 174 189 205 210 210
34 25 19 11 6 4 3 3 2 0 358 354 350 347 344 341 341 340 338 339 337 338 343 347 350 351 348 347 347 351 5 0 328 339 335 331 333 335 337 339 343 343 339 334 324 309 287 265 258 231 124 4 223 200 200 188 180 197 270 300 216 207 203 162 181 186 189 187 180 171 169 171 168 182 216 226 289 299 281 264 252 238 222 205 186 178 179 188
23 15 6 358 356 356 356 355 355 358 358 355 350 348 345 340 335 330 328 328 326 327 334 340 346 350 350 351 352 354 16 27 352 343 337 333 331 330 330 333 340 343 344 337 328 319 297 273 250 225 180 223 215 192 162 204 200 176 233 293 194 213 229 218 197 193 192 186 180 165 161 175 172 197 207 50 356 335 318 284 254 237 224 216 186 166 167 176
17 8 358 352 349 350 352 350 349 353 355 355 352 348 345 341 337 331 329 326 325 325 327 332 336 342 347 350 353 2 26 0 342 338 340 339 331 326 326 330 334 337 342 339 333 324 298 266 239 224 214 205 188 180 143 169 258 200 213 253 181 209 240 215 204 196 198 194 180 174 158 159 157 214 172 30 356 348 355 348 224 209 203 191 175 166 168 176
15 6 0 356 354 353 352 348 345 347 350 351 349 348 345 342 339 334 332 331 331 334 333 332 332 337 343 346 354 10 357 339 338 339 338 338 335 329 326 324 324 327 336 339 337 330 295 253 232 207 211 195 154 157 151 160 228 187 198 213 183 215 239 210 212 201 196 196 188 187 150 132 133 138 163 352 352 358 10 56 116 137 155 158 161 160 161 171
17 10 5 2 0 359 356 349 344 343 344 344 344 344 342 341 341 337 332 330 333 340 341 335 333 336 337 343 0 21 348 342 339 337 334 337 340 332 321 315 318 322 329 338 340 333 309 260 225 198 209 182 147 154 185 182 184 140 159 201 218 255 201 202 211 199 185 186 191 177 130 91 76 109 353 344 359 21 39 97 111 121 129 134 143 142 140 143
18 12 8 5 3 1 358 354 348 346 344 344 343 340 338 336 335 334 332 328 329 337 338 335 335 334 333 345 12 4 346 342 336 335 335 336 336 333 323 312 315 317 321 334 337 335 341 323 257 233 205 162 154 138 171 165 147 131 117 211 279 349 41 344 323 201 193 181 180 158 101 5 33 55 354 352 32 69 79 100 103 109 112 117 126 123 117 113
17 15 14 8 3 359 358 358 356 354 350 348 345 341 339 336 331 330 328 324 324 330 332 333 334 330 333 352 13 356 346 341 337 335 333 331 328 331 331 317 309 307 308 317 327 337 342 343 301 213 186 168 176 156 150 130 124 198 85 131 305 358 357 331 12 188 182 180 180 163 271 300 310 359 358 8 92 114 90 94 97 103 104 107 113 113 109 108
19 20 17 10 5 2 1 3 2 357 356 354 349 345 345 340 333 327 325 324 322 326 330 331 331 331 341 5 10 360 356 345 335 325 324 324 322 326 328 320 312 304 291 294 315 328 338 6 67 170 158 153 159 145 117 37 68 215 24 43 1 352 285 299 24 141 156 191 207 159 239 263 265 349 2 24 109 126 97 94 100 103 105 107 108 110 108 108
20 21 17 13 10 10 11 9 6 2 2 1 353 351 350 345 338 331 326 325 322 323 328 329 332 338 354 26 21 3 357 345 332 324 326 327 323 324 323 316 307 299 281 269 286 305 340 32 143 137 120 123 128 124 24 352 19 29 348 310 339 164 269 310 20 38 105 162 19 125 225 263 265 350 1 29 112 122 103 98 103 104 105 107 107 109 109 109
16 17 16 15 16 20 20 15 12 9 8 6 360 354 353 351 346 339 329 325 324 324 325 327 338 345 1 33 7 355 349 344 339 334 335 336 332 330 332 325 309 294 261 238 247 242 331 48 134 107 115 138 121 105 41 7 347 358 103 241 274 183 286 322 22 14 28 130 7 56 220 227 331 348 4 40 120 119 108 101 103 105 105 107 107 109 110 111
10 14 14 15 21 25 23 20 16 12 10 8 5 0 357 356 350 346 342 334 330 326 322 332 344 338 19 31 350 349 348 342 339 338 336 336 331 329 332 332 326 291 237 216 222 209 206 140 146 115 69 86 83 88 46 346 305 323 27 220 253 205 251 311 327 358 22 98 343 21 156 133 20 350 13 51 121 114 107 104 106 108 107 108 109 110 111 113
7 14 15 16 21 22 21 19 13 11 8 3 4 5 4 0 354 1 9 348 333 331 325 355 355 347 140 359 349 347 346 338 333 340 336 333 328 324 325 323 316 262 214 197 203 198 213 110 129 108 9 8 36 91 122 247 227 257 275 271 296 285 236 269 274 329 23 57 210 8 295 39 11 4 25 55 113 109 103 107 110 110 109 110 110 110 112 112
5 13 14 12 12 12 14 11 9 9 5 3 4 3 3 2 0 18 6 355 358 12 334 347 7 59 263 330 339 341 343 339 336 347 340 336 335 325 321 317 296 224 182 175 186 134 89 82 95 113 283 285 240 154 191 216 184 203 225 194 245 274 263 246 250 289 24 57 277 62 126 6 8 8 25 57 103 104 103 110 111 111 111 110 110 110 112 111
3 6 5 6 5 2 358 360 1 0 2 4 3 3 5 3 5 347 353 6 41 48 23 357 15 32 314 327 329 336 344 346 343 351 345 340 341 331 329 325 300 119 118 185 249 30 64 79 225 233 239 256 251 206 177 172 138 109 139 165 234 239 272 269 274 321 1 121 312 102 99 44 20 0 15 65 94 94 101 111 111 113 111 111 111 110 112 111
359 355 356 2 2 357 353 353 351 353 359 358 358 8 18 10 11 334 343 4 43 34 37 27 24 26 2 346 336 341 348 353 343 354 354 348 347 331 326 354 48 57 8 275 251 14 61 71 244 248 251 259 267 173 118 99 85 68 143 208 281 230 256 275 271 320 334 134 265 122 91 41 26 5 23 66 82 75 93 113 115 116 114 113 114 113 113 114
0 352 354 358 357 355 353 351 349 351 354 350 356 11 19 10 9 347 339 331 17 27 37 24 34 33 11 357 348 349 352 358 347 357 1 358 2 358 352 33 66 50 346 348 340 1 26 262 249 253 226 108 64 83 93 81 85 73 110 179 289 257 272 302 309 322 348 72 251 133 92 55 37 39 40 53 66 72 96 116 119 119 118 116 118 117 118 120
359 352 353 352 351 350 346 346 347 347 348 350 358 7 6 1 2 359 354 313 351 23 27 20 31 22 11 3 349 351 2 22 351 353 1 3 12 20 34 50 65 40 3 17 122 29 348 262 257 259 167 102 45 40 60 59 58 132 148 170 258 292 329 276 305 322 339 58 156 123 101 100 70 61 51 55 75 85 98 115 117 118 120 120 122 124 125 125
354 352 350 348 345 341 340 340 342 345 348 352 357 359 357 356 357 359 3 29 354 3 17 20 23 18 9 359 348 349 3 32 357 351 0 6 11 15 36 49 50 51 4 31 124 139 259 255 286 45 54 81 261 12 54 91 340 302 189 190 233 284 253 224 288 322 334 25 101 115 84 89 80 75 66 71 81 82 93 109 110 113 120 125 128 127 127 126
351 350 345 343 338 334 336 335 340 346 348 350 350 352 354 353 352 355 10 80 337 344 6 10 13 14 2 353 350 347 278 35 6 357 0 8 8 8 45 32 37 32 296 133 88 86 303 281 260 59 53 59 100 332 349 167 300 317 223 210 212 200 216 235 341 3 23 1 9 75 345 305 27 95 116 88 75 71 84 94 99 111 120 127 128 125 126 126
347 345 338 336 332 331 334 336 342 343 342 345 345 348 350 346 350 358 20 78 4 335 355 357 3 3 356 354 353 355 142 356 354 1 5 6 5 14 41 359 47 48 213 155 71 76 356 12 61 102 94 60 61 27 285 151 104 340 221 186 179 149 124 34 13 26 69 273 296 59 206 261 319 129 157 104 80 71 76 78 90 110 119 125 126 126 128 127
338 336 331 330 327 330 337 338 338 336 340 342 340 344 344 344 349 343 23 51 12 329 337 350 5 354 353 0 6 27 129 330 337 4 7 3 4 23 65 342 46 45 281 136 45 39 244 3 32 53 72 61 52 54 264 125 108 293 206 140 139 139 227 216 129 164 219 264 316 22 124 237 285 214 152 117 98 82 76 70 79 104 117 124 127 130 129 126
330 329 326 328 328 332 337 337 334 335 340 338 336 341 339 343 341 330 74 80 336 335 352 341 348 353 352 3 23 45 51 343 356 357 359 6 4 18 97 6 146 178 351 98 308 276 244 0 18 39 54 59 55 238 214 139 130 263 185 126 131 144 197 171 133 166 265 16 314 319 77 232 276 88 84 140 117 117 126 94 76 100 120 130 132 134 131 126
327 326 326 329 330 334 337 337 336 337 338 334 335 337 335 342 338 70 78 115 313 359 9 345 338 345 350 356 26 27 29 15 17 346 2 23 10 25 116 42 123 145 9 67 175 240 274 28 341 83 82 101 246 256 199 163 242 210 128 90 58 62 65 92 104 126 58 29 263 288 4 179 275 197 150 197 154 180 176 127 92 108 126 137 137 138 136 131
327 327 328 330 333 338 338 337 338 335 335 334 332 335 338 349 56 73 47 240 316 344 322 351 342 336 354 10 10 8 16 10 1 358 18 36 32 48 92 53 71 110 9 31 99 222 348 43 7 74 99 227 230 313 145 173 162 116 109 64 54 40 35 54 61 101 64 342 252 271 297 114 314 264 160 164 201 206 181 160 124 119 129 140 139 140 141 133
329 329 329 334 337 340 339 337 338 335 335 333 332 339 346 0 66 87 57 269 306 344 341 1 347 350 13 36 350 350 354 346 358 11 17 23 29 32 41 27 19 40 17 8 2 314 16 50 358 5 1 318 108 66 17 357 70 102 84 41 44 355 13 30 351 49 72 292 262 278 291 126 215 256 235 310 315 272 198 174 149 131 134 141 141 141 142 128
332 329 331 338 340 343 342 338 337 337 337 336 336 340 33 60 29 86 280 317 337 346 357 331 328 1 10 12 341 333 331 336 359 30 31 15 35 25 26 36 0 15 8 345 332 340 2 256 321 345 1 5 27 14 5 1 21 44 51 53 42 348 5 7 328 3 184 240 254 339 25 128 213 204 307 308 316 305 184 147 141 137 138 144 144 143 142 118
332 331 336 342 344 344 342 338 338 339 338 340 336 343 79 78 28 244 279 328 356 330 332 275 313 341 332 350 353 326 329 339 352 21 29 40 66 32 358 18 44 34 349 331 352 356 341 301 339 13 336 0 35 52 3 328 358 17 69 85 68 38 19 321 287 317 291 262 268 320 355 297 256 89 331 312 331 35 113 123 130 133 137 145 145 141 128 5
335 339 342 345 347 343 340 339 338 339 340 341 340 41 64 65 247 279 304 281 282 330 349 319 321 337 16 30 344 325 8 343 347 14 3 23 50 15 343 356 16 46 59 28 21 23 4 303 325 34 321 354 32 74 110 152 20 358 178 124 108 134 111 273 243 240 287 289 297 299 289 233 250 5 354 6 67 91 105 114 119 120 127 133 132 130 41 333
341 343 343 348 347 339 340 342 339 342 338 337 24 67 76 108 249 285 284 266 302 326 320 347 359 8 9 340 326 0 76 317 341 30 21 30 61 9 352 337 349 30 79 37 333 173 25 273 266 309 312 15 42 281 119 85 50 271 184 92 68 175 155 196 204 187 230 318 317 274 222 202 170 9 21 78 89 95 103 111 113 115 119 115 111 91 12 342
346 344 350 352 346 341 346 346 341 346 339 355 61 60 127 197 228 169 217 303 348 319 324 352 31 34 344 317 331 4 63 290 333 26 28 40 125 316 348 281 323 21 66 83 286 331 9 281 281 349 355 64 73 268 27 64 341 309 66 80 234 177 129 110 288 1 71 55 295 244 235 284 21 336 323 77 87 95 108 117 117 115 112 95 71 31 7 352
345 349 359 352 349 350 353 353 351 353 2 69 83 88 204 188 171 180 292 343 286 307 23 18 16 20 337 311 315 328 345 325 337 27 18 358 72 352 358 307 306 17 50 136 238 263 171 278 304 28 89 14 49 55 35 48 77 57 28 221 211 95 94 98 2 355 33 353 282 3 282 286 331 314 283 258 186 196 174 146 129 120 108 64 28 11 0 354
345 0 9 356 354 356 358 2 360 5 58 70 81 136 174 73 272 244 344 8 260 19 59 55 338 19 50 304 298 308 336 348 350 22 13 336 24 80 34 343 333 32 21 93 215 304 129 286 307 333 168 309 357 79 22 7 40 70 134 187 96 79 27 27 36 356 357 308 295 320 310 276 234 212 232 231 214 201 193 169 148 144 103 13 357 352 347 345
350 43 13 358 357 0 0 1 357 33 78 68 84 151 111 306 285 346 355 358 151 79 65 170 296 4 98 189 278 302 336 357 342 4 39 27 2 35 67 357 308 2 1 84 174 281 89 128 293 275 235 307 1 47 359 330 350 32 49 14 30 121 164 309 45 150 225 289 289 323 343 316 239 215 211 230 220 188 173 163 174 193 294 337 337 340 337 336
356 113 10 357 360 3 359 16 41 60 75 85 156 164 9 324 356 358 359 2 117 111 42 198 185 342 318 294 300 305 340 5 314 340 5 345 345 19 45 38 314 332 344 40 107 342 22 123 262 284 317 356 11 7 320 286 310 7 37 23 359 3 138 13 45 120 118 201 216 340 324 277 253 240 242 256 239 169 161 164 184 207 314 331 332 334 331 330
22 99 360 357 5 11 21 57 54 59 82 91 120 110 8 15 11 350 0 21 77 117 155 168 158 187 298 339 333 271 316 327 313 302 293 321 27 15 12 24 331 319 342 23 44 13 12 148 229 294 334 351 284 286 275 232 201 157 104 114 148 11 55 60 329 323 54 147 180 146 297 274 269 20 290 284 134 141 146 146 163 259 331 333 333 333 328 329
51 67 359 3 16 35 63 68 37 43 97 71 51 62 20 1 15 14 20 28 32 1 70 137 123 129 172 258 293 246 299 299 264 304 265 234 51 333 326 353 335 303 348 14 329 300 133 105 83 282 284 285 288 296 303 239 169 128 95 121 136 96 85 113 218 274 342 296 180 122 289 268 263 351 355 60 105 124 130 122 53 339 334 335 336 334 331 330
61 54 14 16 30 61 70 63 14 25 64 69 98 72 40 38 30 18 17 19 8 345 11 59 100 52 179 228 277 244 264 243 214 229 277 240 260 285 314 351 348 325 88 3 314 347 47 75 31 297 294 317 317 324 2 31 94 82 24 48 90 39 77 143 173 184 225 254 186 101 275 265 281 46 70 88 96 105 104 37 346 333 331 334 334 332 331 328
68 54 36 31 34 88 80 90 94 55 11 9 73 42 23 45 39 20 3 9 9 29 53 24 121 27 296 175 145 225 255 289 254 281 59 185 250 316 350 4 10 28 69 119 318 0 342 332 55 4 344 348 347 351 348 343 26 52 8 32 54 66 82 115 156 91 309 236 163 146 244 260 260 72 71 74 72 59 26 3 347 335 331 330 329 329 330 327
73 55 45 43 55 85 89 99 128 122 112 59 54 23 8 37 36 29 47 45 25 55 110 335 275 246 267 126 76 293 292 265 276 328 29 327 269 314 359 4 15 33 44 78 341 355 267 223 95 83 38 337 319 311 298 297 329 358 9 19 24 63 93 149 219 71 304 257 133 157 225 268 296 98 40 30 43 9 350 351 344 336 331 327 327 330 330 326
77 57 35 40 55 70 72 67 83 111 129 97 59 20 17 19 358 17 50 80 30 25 60 331 282 243 8 32 16 326 318 292 284 348 7 300 276 302 357 13 35 31 25 22 3 30 116 68 81 143 169 203 240 253 263 3 336 300 312 350 16 27 69 99 93 116 191 229 330 211 209 308 323 17 55 23 19 347 331 336 333 329 329 328 329 330 327 326
71 46 357 23 46 57 57 49 52 74 120 112 88 19 357 327 308 359 30 37 6 8 38 45 30 37 5 10 15 311 304 330 342 336 335 276 272 302 344 42 45 11 0 358 352 42 103 357 341 163 206 230 239 263 317 41 238 250 284 328 17 16 53 102 149 231 171 85 294 239 159 325 311 337 48 358 349 330 317 325 325 325 328 328 328 329 329 329
83 92 69 68 54 40 44 34 42 63 72 79 113 103 353 353 351 358 327 324 353 19 30 18 25 29 303 287 39 312 312 341 345 287 276 314 304 334 358 49 53 17 14 26 4 65 117 302 303 164 263 260 256 283 313 105 225 238 348 339 340 42 123 151 215 225 155 160 264 250 179 295 295 335 30 331 325 313 312 320 324 325 327 328 328 329 330 330
97 103 76 78 92 92 82 31 35 63 55 46 79 77 33 28 9 300 247 327 349 5 34 358 329 345 304 219 146 279 310 341 320 293 237 338 314 341 0 336 34 18 22 39 13 51 115 266 262 144 298 291 292 301 287 123 311 14 56 11 229 176 176 182 227 216 171 228 261 285 305 288 271 156 316 321 319 312 317 324 326 327 327 327 328 328 329 329
103 105 94 96 88 59 50 33 25 68 44 27 57 50 39 83 338 299 242 127 336 331 24 356 306 316 285 177 158 212 245 198 234 261 208 123 317 271 118 241 249 3 14 38 359 11 58 306 303 83 330 306 315 331 320 150 159 117 75 23 28 71 121 154 255 201 163 274 281 311 311 289 247 293 313 321 324 323 325 326 325 326 326 324 324 328 330 327
99 102 104 102 73 16 18 23 38 82 41 12 42 28 309 248 280 289 253 212 217 279 326 294 298 316 15 132 180 237 267 236 235 256 243 234 268 234 219 272 211 352 1 27 344 354 45 359 359 57 7 288 295 344 344 45 104 95 39 3 5 30 61 240 273 225 214 282 299 319 312 281 269 316 315 320 328 329 325 322 322 323 323 321 321 329 332 326
94 97 98 98 75 6 8 14 31 66 66 321 286 239 286 287 279 304 298 255 235 260 294 269 259 323 335 332 265 275 300 294 273 276 274 261 260 256 271 288 283 311 317 94 34 355 86 82 34 54 5 268 290 325 333 55 75 11 321 308 277 285 271 264 292 279 236 234 282 294 278 254 287 314 320 326 331 328 323 322 323 321 319 318 324 335 333 327